User: anonymous
Location: Walnut Point State Park
(39.6958°N, 88.0345°W)
Time: 10:51:40
(UTC-05:00)
Language:

ATLAS 3B R/B - Orbit

View from above orbital plane
View from above orbital plane
View from above satellite
View from above satellite

Ground track
Ground track

The orbit data is extracted from the following two-line orbital elements,

1 28538U 05004B   14191.89404143 0.00000030  00000-0  45695-4 0    03
2 28538  63.8200 120.5310 0216000 245.4706 114.5294 13.43027267    07
Epoch (UTC): 10 July 2014 21:27:25
Eccentricity: 0.0216000
inclination: 63.8200°
perigee height: 936 km
apogee height: 1259 km
right ascension of ascending node: 120.5310°
argument of perigee: 245.4706°
revolutions per day: 13.43027267
mean anomaly at epoch: 114.5294°
orbit number at epoch: 0

The dashed part of the orbit path shows where the satellite is in the earth's shadow,  

DLR